Tracking 30995 objects as of 5-Jul-2025
HD Live streaming from Space Station
objects crossing your sky now

STARLINK-2674

Track STARLINK-2674 now!
10-day predictions
STARLINK-2674 is classified as:


NORAD ID: 48354
Int'l Code: 2021-038B
Perigee: 553.4 km
Apogee: 555.3 km
Inclination: 53.1 °
Period: 95.6 minutes
Semi major axis: 6925 km
RCS: Unknown
Launch date: May 4, 2021
Source: United States (US)
Launch site: AIR FORCE EASTERN TEST RANGE (AFETR)
Your satellite tracking list
EXPRESS AT-1
Track 1 satellite(s)




NASA's NSSDC Master Catalog

Two Line Element Set (TLE):
1 48354U 21038B   25185.85916372  .00000809  00000-0  73186-4 0  9996
2 48354  53.0556  34.1697 0001373  88.8719 271.2428 15.06402838229674
Source of the keplerian elements: AFSPC